Tracking 19246 objects as of 19-Aug-2018
HD Live streaming from Space Station
objects crossing your sky now

SSC

Track SSC now!
10-day predictions
SSC is classified as:


NORAD ID: 13874
Int'l Code: 1983-008H
Perigee: 389.5 km
Apogee: 1,736.2 km
Inclination: 63.3 °
Period: 106.3 minutes
Semi major axis: 7433 km
RCS: Unknown
Launch date: February 9, 1983
Source: United States (US)
Launch site: AIR FORCE WESTERN TEST RANGE (AFWTR)
aabbcc
Your satellite tracking list
Your tracking list is empty




NASA's NSSDC Master Catalog

Two Line Element Set (TLE):
1 13874U 83008H   18135.83868460 0.00001700  00000-0  13176-3 0    05
2 13874  63.2900  58.5572 0905787  81.6033 278.3967 13.54503913    00
Source of the keplerian elements: McCants